Weather Roundup
Issued by NWS Chicago, IL

Home | Current Version | Previous Version | Text Only | Print | Product List | Glossary On
Versions: 1 2 3 4 5 6 7 8 9 10 11 12 13 14 15 16 17 18 19 20 21 22 23 24 25 26 27 28 29 30 31 32 33 34 35 36 37 38 39 40 41 42 43 44 45 46 47 48 49 50
000
NZUS59 KLOT 060010
HRRLOT

CHICAGO AREA WEATHER ROUNDUP
NATIONAL WEATHER SERVICE CHICAGO/ROMEOVILLE IL
600 PM CST THU MAR 05 2015

NOTE: "FAIR" INDICATES FEW OR NO CLOUDS BELOW 12,000 FEET WITH NO
SIGNIFICANT WEATHER AND/OR OBSTRUCTIONS TO VISIBILITY.

* THESE STATIONS ARE NOT UNDER NWS QUALITY CONTROL. THEY ALSO MAY NOT
  REPORT WEATHER SUCH AS PRECIPITATION OR FOG.

ILZ005-006-012>014-019>023-060100-
NORTHEAST ILLINOIS

CITY           SKY/WX    TMP DP  RH WIND       PRES   REMARKS
OHARE          CLEAR     13  -2  51 W10       30.50R WCI   0
6HR MIN TEMP:  13; 6HR MAX TEMP:  16;

MIDWAY         CLEAR     16   0  49 W10       30.52R WCI   4
6HR MIN TEMP:  16; 6HR MAX TEMP:  19;

AURORA         CLEAR      8  -2  63 W7        30.53R WCI  -3
6HR MIN TEMP:   8; 6HR MAX TEMP:  14;

LANSING*       CLEAR     13   1  56 W9        30.52R WCI   1
JOLIET*        CLEAR     12   0  58 W5        30.55R WCI   4
WAUKEGAN       CLEAR     11  -5  48 SW5       30.49R WCI   3
6HR MIN TEMP:  11; 6HR MAX TEMP:  16;

DUPAGE AIRPORT CLEAR     10  -3  55 W10       30.51R WCI  -4
6HR MIN TEMP:  10; 6HR MAX TEMP:  15;

WHEELING       CLEAR     14  -3  47 W7        30.52R WCI   4
6HR MIN TEMP:  14; 6HR MAX TEMP:  17;

KANKAKEE*      CLEAR     11   2  68 W8        30.56R WCI  -1
MORRIS*        CLEAR      9   2  72 W7        30.54R WCI  -2
LEWIS AIRPORT* CLEAR     10  -1  60 NW7       30.53R WCI  -1
NORTHERLY IS     N/A     17   1  49 W7          N/A  WCI   8
$$

WIZ051-052-058>065-066-070>072-060100-
SOUTHEAST WISCONSIN

CITY           SKY/WX    TMP DP  RH WIND       PRES   REMARKS
MILWAUKEE      CLEAR     14  -6  40 W7        30.49R WCI   4
6HR MIN TEMP:  12; 6HR MAX TEMP:  16;

KENOSHA*       CLEAR      7  -6  55 W7        30.49R WCI  -5
RACINE*        CLEAR     12  -6  44 W7        30.51R WCI   1
BURLINGTON     CLEAR      6  -7  56 SW6       30.49R WCI  -5
WAUKESHA       CLEAR     10  -6  48 SW7       30.47R WCI   0
WEST BEND      CLEAR     12  -4  48 SW6       30.45R WCI   3
$$

INZ001>003-010>013-019-020-060100-
NORTHWEST INDIANA

CITY           SKY/WX    TMP DP  RH WIND       PRES   REMARKS
GARY*          CLEAR     18  -4  38 W9        30.51  WCI   6
MICHIGAN CITY* NOT AVBL
RENSSELAER*    NOT AVBL
VALPARAISO     CLEAR     15  -1  49 CALM      30.50R
$$

LMZ740>746-060100-
SOUTHERN LAKE MICHIGAN

STATION/POSITION TIME  SKY/WX   TEMP WIND        PRES    VSBY
                                AIR  DIR/SP/G
                 (UTC)          (F)  (DEG/KT/KT) (MB)    (MI)
HARRISON CRIB    0000            16  280/  6/  9   N/A
BURNHAM HARBOR   0000            17  250/  9/ 10   N/A
CALUMET HARBOR   0000            16  260/  4/  6 1031.7R
BURNS HARBOR     NOT AVBL
MICHIGAN CITY    0000            15  330/  5/  5   N/A
$$

ABBREVIATIONS USED IN REMARKS
   TC - TEMPERATURE IN CELSIUS
  WCI - WIND CHILL INDEX
   HX - HEAT INDEX
  VSB - VISIBILITY
$$


USA.gov is the U.S. government's official web portal to all federal, state and local government web resources and services.